Weather History for Seattle Boeing, WA

Change the Weather History Date:

Saturday, June 8, 2013

  Actual Average Record
Temperature  
Mean Temperature 62 °F -  
Max Temperature 69 °F 66 °F 87 °F (1948)
Min Temperature 55 °F 50 °F 43 °F (1975)
Degree Days  
Heating Degree Days 4    
Growing Degree Days 12 (Base 50)    
Moisture  
Dew Point 46 °F    
Average Humidity 58    
Maximum Humidity 67    
Minimum Humidity 47    
Precipitation  
Precipitation 0.00 in - - ()
Sea Level Pressure  
Sea Level Pressure 30.16 in    
Wind  
Wind Speed 3 mph (North)    
Max Wind Speed 8 mph    
Max Gust Speed -    
Visibility 10 miles    
Events      
Averages and records for this station are not official NWS values.
T = Trace of Precipitation, MM = Missing Value Source: NWS Daily Summary

Daily Weather History Graph

Daily Weather History Graph

Search for Another Location

Airport:

Trip Planner

Search our weather history database for the weather conditions in past years. The results will help you decide how hot, cold, wet, or windy it might be!

Date:

Astronomy

Jun. 08, 2013 Rise Set
Actual Time 5:12 AM PDT 9:04 PM PDT
Civil Twilight 4:32 AM PDT 9:44 PM PDT
Nautical Twilight 3:37 AM PDT 10:39 PM PDT
Astronomical Twilight 2:15 AM PDT 12:03 AM PDT
Moon 5:28 AM PDT (6/8) 9:06 PM PDT (6/8)
Length of Visible Light 17h 12m
Length of Day
15h 52m
New Moon, 0% of the Moon is Illuminated
Jun 8
New Moon
Jun 16
First Quarter
Jun 23
Full
Jun 29
Last Quarter
Jul 8
New

Hourly Weather History & Observations

Time (PDT) Temp. Dew Point Humidity Pressure Visibility Wind Dir Wind Speed Gust Speed Precip Events Conditions
12:53 AM 59.0 °F 46.9 °F 64% 30.16 in 10.0 mi Calm Calm - N/A   Overcast
1:53 AM 57.9 °F 45.0 °F 62% 30.16 in 10.0 mi Calm Calm - N/A   Overcast
2:04 AM 57.2 °F 44.6 °F 63% 30.16 in 10.0 mi Variable 4.6 mph - N/A   Overcast
2:53 AM 57.0 °F 45.0 °F 64% 30.17 in 10.0 mi Variable 4.6 mph - N/A   Overcast
3:53 AM 57.0 °F 45.0 °F 64% 30.18 in 10.0 mi Variable 4.6 mph - N/A   Overcast
4:53 AM 57.0 °F 45.0 °F 64% 30.18 in 10.0 mi Variable 3.5 mph - N/A   Overcast
5:53 AM 55.9 °F 45.0 °F 67% 30.19 in 10.0 mi Variable 3.5 mph - N/A   Overcast
6:53 AM 57.0 °F 45.0 °F 64% 30.19 in 10.0 mi ENE 3.5 mph - N/A   Overcast
7:53 AM 57.0 °F 45.0 °F 64% 30.19 in 10.0 mi Calm Calm - N/A   Overcast
8:53 AM 59.0 °F 45.0 °F 60% 30.18 in 10.0 mi NE 3.5 mph - N/A   Overcast
9:53 AM 60.1 °F 46.0 °F 60% 30.18 in 10.0 mi Calm Calm - N/A   Overcast
10:53 AM 60.1 °F 46.0 °F 60% 30.18 in 10.0 mi Calm Calm - N/A   Overcast
11:53 AM 62.1 °F 48.0 °F 60% 30.18 in 10.0 mi Variable 3.5 mph - N/A   Overcast
12:53 PM 63.0 °F 48.0 °F 58% 30.18 in 10.0 mi Variable 3.5 mph - N/A   Overcast
1:53 PM 64.0 °F 46.9 °F 54% 30.17 in 10.0 mi NNW 3.5 mph - N/A   Overcast
2:53 PM 66.9 °F 48.9 °F 52% 30.17 in 10.0 mi Variable 3.5 mph - N/A   Overcast
3:53 PM 66.9 °F 48.0 °F 51% 30.15 in 10.0 mi WNW 5.8 mph - N/A   Mostly Cloudy
4:53 PM 66.9 °F 46.9 °F 49% 30.14 in 10.0 mi West 8.1 mph - N/A   Scattered Clouds
5:53 PM 68.0 °F 46.9 °F 47% 30.13 in 10.0 mi Variable 5.8 mph - N/A   Scattered Clouds
6:53 PM 68.0 °F 46.9 °F 47% 30.12 in 10.0 mi NNW 6.9 mph - N/A   Clear
7:53 PM 66.9 °F 46.9 °F 49% 30.11 in 10.0 mi Variable 3.5 mph - N/A   Partly Cloudy
8:53 PM 64.0 °F 48.0 °F 56% 30.11 in 10.0 mi NNE 3.5 mph - N/A   Clear
9:53 PM 62.1 °F 46.9 °F 58% 30.12 in 10.0 mi Calm Calm - N/A   Mostly Cloudy
10:53 PM 62.1 °F 46.9 °F 58% 30.12 in 10.0 mi Variable 3.5 mph - N/A   Mostly Cloudy
11:53 PM 61.0 °F 46.0 °F 58% 30.12 in 10.0 mi Calm Calm - N/A   Overcast